FW8046 Weather Reports


time (UTC)temp
C
wind
direction
speed
KPH
gust
KPH
rain 1hr
cm
rain 24hr
cm
rain mn
cm
humidity
%
barometer
mb
20260505140617 16 338 0.0 3.2 0.00 2.84 2.84 97 1007.5
20260505140114 15 354 0.0 3.2 0.00 2.84 2.84 97 1007.5
20260505125030 15 22 0.0 1.6 0.00 2.84 2.84 97 1007.0
20260505124527 15 348 0.0 3.2 0.00 2.84 2.84 97 1007.0
20260505124023 15 355 1.6 3.2 0.00 2.84 2.84 97 1007.0
20260505123520 15 329 1.6 1.6 0.00 2.84 2.84 97 1007.4
20260505123016 15 350 0.0 3.2 0.00 2.84 2.84 97 1007.0
20260505122513 15 349 0.0 1.6 0.00 2.84 2.84 97 1006.8
20260505122010 15 66 1.6 4.8 0.00 2.84 2.84 97 1006.8
20260505121506 15 352 0.0 0.0 0.00 2.84 2.84 97 1006.6
20260505121003 15 26 3.2 3.2 0.00 2.84 2.84 97 1006.6
20260505120459 15 347 0.0 0.0 0.00 2.84 2.84 97 1006.8
20260505115958 15 348 0.0 3.2 0.00 2.84 2.84 97 1006.5
20260505115455 15 345 0.0 4.8 0.00 2.84 2.84 97 1006.4
20260505114953 15 358 0.0 1.6 0.00 2.84 2.84 97 1006.5
20260505114449 15 352 0.0 3.2 0.00 2.84 2.84 97 1006.6
20260505113946 15 349 0.0 1.6 0.00 2.84 2.84 97 1006.5
20260505113442 15 357 0.0 1.6 0.00 2.84 2.84 97 1006.3
20260505112937 15 353 0.0 1.6 0.00 2.84 2.84 97 1006.4
20260505112435 15 29 1.6 3.2 0.00 2.84 2.84 97 1006.5
20260505111932 15 38 0.0 3.2 0.00 2.84 2.84 97 1006.4
20260505111426 15 351 0.0 3.2 0.00 2.84 2.84 97 1006.4
20260505110923 15 341 0.0 1.6 0.00 2.84 2.84 97 1006.0
20260505110420 15 338 0.0 3.2 0.00 2.84 2.84 97 1006.2
20260505101851 15 47 1.6 1.6 0.00 2.84 2.84 98 1007.4
20260505101346 15 2 0.0 1.6 0.00 2.84 2.84 98 1007.3
20260505100841 15 340 0.0 1.6 0.00 2.84 2.84 98 1007.6
20260505100338 15 351 0.0 3.2 0.00 2.84 2.84 98 1007.6
20260505095834 15 44 1.6 3.2 0.00 2.84 2.84 98 1007.3
20260505095332 15 349 0.0 3.2 0.00 2.84 2.84 98 1007.5
20260505094827 15 341 0.0 1.6 0.00 2.84 2.84 98 1007.4
20260505094325 15 359 1.6 3.2 0.00 2.84 2.84 98 1007.4
20260505093820 15 353 0.0 0.0 0.13 2.84 2.84 98 1007.6
20260505093318 15 343 0.0 3.2 0.13 2.84 2.84 98 1007.7
20260505092814 15 349 0.0 1.6 0.00 2.82 2.82 98 1007.7
20260505092313 15 342 0.0 0.0 0.18 2.82 2.82 98 1007.7
20260505091810 15 345 0.0 0.0 0.30 2.82 2.82 98 1007.7
20260505091303 15 349 0.0 1.6 0.13 2.79 2.79 98 1007.6
20260505090800 15 351 0.0 0.0 0.00 2.77 2.77 98 1007.8
20260505090258 15 39 1.6 3.2 0.18 2.77 2.77 98 1007.6
20260505085755 15 349 0.0 1.6 0.18 2.77 2.77 98 1007.9
20260505085253 15 347 0.0 1.6 0.48 2.74 2.74 98 1008.0
20260505084750 15 11 0.0 1.6 1.98 2.74 2.74 98 1007.6
20260505084249 15 347 0.0 1.6 2.16 2.64 2.64 98 1008.1
20260505083745 15 72 0.0 3.2 0.71 2.39 2.39 97 1008.2
20260505083242 15 310 4.8 9.7 0.43 2.29 2.29 98 1008.3
20260505082738 15 348 0.0 0.0 1.07 2.26 2.26 98 1007.3
20260505082236 15 356 0.0 1.6 1.07 2.21 2.21 97 1007.0
20260505081732 15 358 1.6 1.6 0.30 2.08 2.08 98 1007.0
20260505081229 15 3 1.6 1.6 0.18 2.03 2.03 97 1007.8
20260505080726 15 352 1.6 1.6 0.30 2.03 2.03 97 1007.1
20260505080221 15 348 0.0 1.6 0.13 2.01 2.01 97 1007.3
20260505075717 15 77 1.6 1.6 0.18 1.98 1.98 97 1007.4
20260505075215 15 9 0.0 1.6 0.61 1.98 1.98 97 1007.7
20260505074712 15 15 1.6 1.6 0.89 1.96 1.96 97 1007.6
20260505074209 15 335 1.6 8.0 0.61 1.88 1.88 97 1008.1
20260505073706 15 337 3.2 11.3 0.61 1.80 1.80 97 1007.9
20260505073204 15 299 3.2 11.3 4.01 1.78 1.78 97 1008.0
20260505072700 15 81 8.0 11.3 4.45 1.65 1.65 96 1007.4
20260505072156 16 347 8.0 14.5 2.59 1.09 1.09 96 1008.6
20260505071652 16 129 3.2 8.0 1.07 0.84 0.84 95 1007.6
20260505071150 16 159 4.8 8.0 0.18 0.66 0.66 95 1007.2
20260505070647 16 314 1.6 8.0 1.37 0.66 0.66 95 1006.6
20260505070143 16 7 1.6 3.2 1.27 0.61 0.61 95 1007.3
20260505065639 16 337 1.6 3.2 0.18 0.43 0.43 94 1007.2
20260505065136 16 319 0.0 1.6 0.13 0.41 0.41 94 1006.9
20260505064633 16 351 0.0 1.6 0.89 0.41 0.41 94 1007.3
20260505064131 16 344 0.0 1.6 1.07 0.36 0.36 93 1006.6
20260505063628 16 354 1.6 3.2 0.36 0.23 0.23 92 1007.2
20260505063124 16 313 1.6 3.2 0.13 0.18 0.18 92 1008.7
20260505062621 16 316 4.8 8.0 0.13 0.18 0.18 91 1007.8
20260505062118 16 340 0.0 3.2 0.18 0.15 0.15 90 1006.8
20260505061615 17 298 1.6 3.2 0.18 0.15 0.15 89 1006.9
20260505061113 17 1 1.6 4.8 0.13 0.13 0.13 87 1007.1
20260505060610 17 353 0.0 4.8 0.30 0.13 0.13 86 1007.6
20260505060107 17 339 0.0 1.6 0.48 0.10 0.10 86 1008.0
20260505055602 18 202 1.6 3.2 0.43 0.08 0.08 83 1007.8
20260505055059 19 343 1.6 1.6 0.13 0.03 0.03 79 1008.0
20260505054556 19 339 3.2 4.8 0.00 0.00 0.00 74 1008.2
20260505054055 20 328 0.0 1.6 0.00 0.00 0.00 73 1007.9
20260505053551 20 347 0.0 1.6 0.00 0.00 0.00 71 1008.0
20260505053048 20 349 0.0 0.0 0.00 0.00 0.00 71 1008.2
20260505052545 20 345 0.0 1.6 0.00 0.00 0.00 70 1008.1
20260505052043 20 342 0.0 1.6 0.00 0.00 0.00 70 1008.0
20260505051539 20 333 3.2 4.8 0.00 0.00 0.00 70 1007.6
20260505051037 20 2 1.6 3.2 0.00 0.00 0.00 71 1007.4
20260505050535 20 359 1.6 1.6 0.00 0.00 0.00 71 1007.2
20260505041503 19 304 1.6 1.6 0.00 0.00 0.00 73 1008.0
20260505041000 19 344 0.0 1.6 0.00 0.00 0.00 73 1008.1
20260505040457 19 342 0.0 3.2 0.00 0.00 0.00 72 1008.0
20260505035954 19 344 0.0 3.2 0.00 0.00 0.00 72 1008.2
20260505035450 19 338 0.0 3.2 0.00 0.00 0.00 72 1008.0
20260505034948 20 344 1.6 3.2 0.00 0.00 0.00 72 1008.2
20260505034444 20 347 0.0 1.6 0.00 0.00 0.00 72 1008.2
20260505033941 20 340 1.6 1.6 0.00 0.00 0.00 72 1008.3
20260505033438 20 4 0.0 1.6 0.00 0.00 0.00 72 1008.4
20260505032936 20 350 0.0 1.6 0.00 0.00 0.00 71 1008.2
20260505032433 20 339 1.6 1.6 0.00 0.00 0.00 71 1008.5
20260505031929 20 344 0.0 4.8 0.00 0.00 0.00 71 1008.5
20260505031426 20 357 0.0 3.2 0.00 0.00 0.00 71 1008.4
20260505030923 20 351 0.0 1.6 0.00 0.00 0.00 71 1008.5
20260505030419 20 347 1.6 1.6 0.00 0.00 0.00 70 1008.5
20260505025915 20 342 0.0 1.6 0.00 0.00 0.00 70 1008.4
20260505025412 20 343 0.0 3.2 0.00 0.00 0.00 70 1008.3
20260505024911 20 352 0.0 3.2 0.00 0.00 0.00 70 1008.5
20260505024408 20 337 0.0 1.6 0.00 0.00 0.00 70 1008.5
20260505023905 20 335 0.0 1.6 0.00 0.00 0.00 69 1008.4
20260505023402 20 315 0.0 1.6 0.00 0.00 0.00 69 1008.2
20260505022859 20 326 0.0 1.6 0.00 0.00 0.00 69 1008.2
20260505022356 20 345 0.0 1.6 0.00 0.00 0.00 69 1008.2
20260505021854 20 345 0.0 3.2 0.00 0.00 0.00 69 1008.1
20260505021350 20 345 0.0 0.0 0.00 0.00 0.00 69 1008.1
20260505020846 20 346 0.0 1.6 0.00 0.00 0.00 68 1008.1
20260505020341 20 349 0.0 0.0 0.00 0.00 0.00 68 1008.1
20260505015838 21 346 0.0 0.0 0.00 0.00 0.00 68 1008.0
20260505015336 21 348 0.0 0.0 0.00 0.00 0.00 67 1008.0
20260505014833 21 349 0.0 0.0 0.00 0.00 0.00 67 1008.0
20260505014330 21 339 1.6 3.2 0.00 0.00 0.00 66 1007.9
20260505013826 21 278 1.6 1.6 0.00 0.00 0.00 66 1008.0
20260505013323 21 339 0.0 1.6 0.00 0.00 0.00 65 1007.7
20260505012822 21 278 1.6 3.2 0.00 0.00 0.00 65 1007.8
20260505012319 21 340 0.0 1.6 0.00 0.00 0.00 65 1007.5
20260505011815 21 343 0.0 3.2 0.00 0.00 0.00 64 1007.7
20260505011312 21 325 0.0 3.2 0.00 0.00 0.00 64 1007.5
20260505010808 22 343 0.0 1.6 0.00 0.00 0.00 63 1007.4
20260505010304 22 346 0.0 4.8 0.00 0.00 0.00 63 1007.5
20260505005800 22 323 1.6 8.0 0.00 0.00 0.00 62 1007.5
20260505005258 22 343 0.0 3.2 0.00 0.00 0.00 62 1007.4
20260505004755 22 340 0.0 8.0 0.00 0.00 0.00 61 1007.4
20260505004251 22 339 0.0 1.6 0.00 0.00 0.00 61 1007.4
20260505003748 22 2 0.0 3.2 0.00 0.00 0.00 61 1007.0
20260505003246 22 346 0.0 1.6 0.00 0.00 0.00 60 1007.6
20260505002742 23 342 0.0 8.0 0.00 0.00 0.00 60 1007.3
20260505002239 23 340 0.0 3.2 0.00 0.00 0.00 59 1007.4
20260505001737 23 26 1.6 8.0 0.00 0.00 0.00 59 1007.6
20260505001234 23 338 1.6 8.0 0.00 0.00 0.00 58 1007.4
20260505000731 23 328 1.6 4.8 0.00 0.00 0.00 58 1007.4
20260505000229 23 339 1.6 3.2 0.00 0.00 0.00 58 1007.4
20260504235725 24 339 3.2 8.0 0.00 0.00 0.00 57 1007.3
20260504235221 24 168 1.6 9.7 0.00 0.00 0.00 56 1007.3
20260504234719 24 332 3.2 11.3 0.00 0.00 0.00 56 1007.3
20260504234216 24 237 0.0 8.0 0.00 0.00 0.00 56 1007.3
20260504233712 25 25 1.6 3.2 0.00 0.00 0.00 55 1007.3
20260504233208 25 284 3.2 8.0 0.00 0.00 0.00 55 1007.2
20260504232706 25 0 4.8 11.3 0.00 0.00 0.00 54 1007.2
20260504232202 25 350 0.0 3.2 0.00 0.00 0.00 54 1007.0
20260504231659 25 342 1.6 11.3 0.00 0.00 0.00 53 1007.0
20260504231155 25 48 3.2 9.7 0.00 0.00 0.00 52 1007.1
20260504230652 25 2 3.2 11.3 0.00 0.00 0.00 52 1007.2
20260504230151 26 33 3.2 9.7 0.00 0.00 0.00 52 1007.1
20260504225649 26 14 6.4 9.7 0.00 0.00 0.00 52 1007.1
20260504225144 26 341 3.2 11.3 0.00 0.00 0.00 52 1007.2
20260504224641 26 307 3.2 16.1 0.00 0.00 0.00 51 1007.2
20260504224138 26 336 1.6 3.2 0.00 0.00 0.00 51 1007.2
20260504223635 27 317 4.8 11.3 0.00 0.00 0.00 49 1007.3
20260504223131 27 349 0.0 3.2 0.00 0.00 0.00 50 1007.0
20260504222628 27 323 1.6 8.0 0.00 0.00 0.00 49 1007.1
20260504222125 27 349 3.2 11.3 0.00 0.00 0.00 49 1007.2
20260504221622 27 226 3.2 8.0 0.00 0.00 0.00 50 1007.4
20260504221119 27 282 1.6 8.0 0.00 0.00 0.00 50 1007.1
20260504220616 27 317 3.2 4.8 0.00 0.00 0.00 49 1007.3
20260504220114 27 18 1.6 12.9 0.00 0.00 0.00 49 1007.2
20260504215609 27 337 1.6 8.0 0.00 0.00 0.00 49 1007.6
20260504215107 27 319 3.2 3.2 0.00 0.00 0.00 49 1007.6
20260504214603 27 313 0.0 3.2 0.00 0.00 0.00 50 1007.6
20260504214059 27 342 1.6 4.8 0.00 0.00 0.00 49 1007.6
20260504213556 27 326 1.6 9.7 0.00 0.00 0.00 48 1007.5
20260504213053 27 14 1.6 12.9 0.00 0.00 0.00 48 1007.7
20260504212549 27 341 1.6 3.2 0.00 0.00 0.00 48 1007.7
20260504212046 27 349 1.6 3.2 0.00 0.00 0.00 50 1007.8
20260504211543 27 66 0.0 11.3 0.00 0.00 0.00 51 1007.8
20260504211040 27 7 3.2 8.0 0.00 0.00 0.00 50 1007.9
20260504210537 27 329 4.8 8.0 0.00 0.00 0.00 48 1008.0
20260504210033 27 254 1.6 11.3 0.00 0.00 0.00 49 1008.0
20260504205531 27 300 4.8 11.3 0.00 0.00 0.00 48 1008.1
20260504205029 27 2 3.2 8.0 0.00 0.00 0.00 49 1008.2
20260504204527 27 346 4.8 9.7 0.00 0.00 0.00 49 1008.3
20260504204026 27 331 1.6 14.5 0.00 0.00 0.00 49 1008.4
20260504203523 27 328 3.2 8.0 0.00 0.00 0.00 50 1008.5
20260504203021 27 252 1.6 9.7 0.00 0.00 0.00 48 1008.3
20260504202516 27 330 1.6 14.5 0.00 0.00 0.00 50 1008.4
20260504202013 27 236 8.0 12.9 0.00 0.00 0.00 47 1008.6
20260504201510 27 314 3.2 9.7 0.00 0.00 0.00 50 1008.5
20260504201008 27 327 3.2 11.3 0.00 0.00 0.00 50 1008.7
20260504200504 27 316 4.8 9.7 0.00 0.00 0.00 49 1008.8
20260504200001 27 333 1.6 9.7 0.00 0.00 0.00 51 1008.5
20260504195457 27 286 6.4 11.3 0.00 0.00 0.00 49 1008.6
20260504194954 26 351 4.8 11.3 0.00 0.00 0.00 51 1008.9
20260504194450 26 294 9.7 16.1 0.00 0.00 0.00 51 1008.8
20260504193945 26 4 4.8 12.9 0.00 0.00 0.00 53 1008.8
20260504193443 26 359 6.4 9.7 0.00 0.00 0.00 50 1008.8
20260504192942 26 302 3.2 14.5 0.00 0.00 0.00 52 1009.1
20260504192438 26 251 8.0 9.7 0.00 0.00 0.00 50 1009.0
20260504191937 26 272 4.8 14.5 0.00 0.00 0.00 52 1009.1
20260504191435 26 336 3.2 8.0 0.00 0.00 0.00 51 1009.1
20260504190930 26 245 1.6 8.0 0.00 0.00 0.00 52 1009.2
20260504190426 26 251 3.2 17.7 0.00 0.00 0.00 53 1009.1
20260504185923 26 347 1.6 8.0 0.00 0.00 0.00 51 1009.1
20260504185420 26 174 6.4 9.7 0.00 0.00 0.00 52 1009.2
20260504184915 26 353 3.2 17.7 0.00 0.00 0.00 53 1009.2
20260504184412 26 340 3.2 22.5 0.00 0.00 0.00 52 1009.3
20260504183908 26 329 3.2 16.1 0.00 0.00 0.00 52 1009.6
20260504183405 26 282 8.0 12.9 0.00 0.00 0.00 50 1009.6
20260504182903 26 354 1.6 9.7 0.00 0.00 0.00 53 1009.7
20260504182400 26 318 4.8 11.3 0.00 0.00 0.00 53 1009.6
20260504181856 26 345 4.8 9.7 0.00 0.00 0.00 53 1009.7
20260504181354 26 317 1.6 9.7 0.00 0.00 0.00 53 1009.7
20260504180853 25 328 1.6 9.7 0.00 0.00 0.00 53 1009.9
20260504180351 25 295 1.6 9.7 0.00 0.00 0.00 53 1009.9
20260504175849 25 88 4.8 12.9 0.00 0.00 0.00 53 1009.9
20260504175345 25 359 1.6 8.0 0.00 0.00 0.00 54 1010.1
20260504174843 25 274 3.2 8.0 0.00 0.00 0.00 54 1010.0
20260504174341 25 336 1.6 20.9 0.00 0.00 0.00 54 1010.1
20260504173837 25 303 3.2 11.3 0.00 0.00 0.00 53 1010.1
20260504173334 25 86 3.2 11.3 0.00 0.00 0.00 53 1010.4
20260504172831 25 317 3.2 11.3 0.00 0.00 0.00 53 1010.4
20260504172328 25 355 0.0 9.7 0.00 0.00 0.00 55 1010.3
20260504171824 25 237 1.6 9.7 0.00 0.00 0.00 54 1010.4
20260504171321 24 39 4.8 11.3 0.00 0.00 0.00 54 1010.5
20260504170818 24 349 4.8 16.1 0.00 0.00 0.00 53 1010.3
20260504170315 25 45 4.8 11.3 0.00 0.00 0.00 52 1010.4
20260504160233 24 336 1.6 12.9 0.00 0.00 0.00 53 1010.9
20260504150659 22 276 3.2 11.3 0.00 0.00 0.00 54 1011.1
20260504150155 22 349 1.6 24.1 0.00 0.00 0.00 55 1011.1